SPACEBEE-52 (47425 NORAD) Tracking and Keplerian Element Data

This shows tracking and keplerian element data for the satellite.

Feedback or suggestion? Click here.




ElementValue
Catalog47425
NameSPACEBEE-52
Epoch Orbit1353
Epoch Day105.68999672
Epoch Year2021
RAAN168.2066
Inclination97.4966
Eccentricity0.0013063
Argument of Perigee323.3013
Mean Anonmoly36.7323
Mean Motion15.14415355
Decay Rate3.689E-05
L11 47425U 21006N 21105.68999672 .00003689 00000-0 20411-3 0 9993
L22 47425 97.4966 168.2066 0013063 323.3013 36.7323 15.14415355 13532

Live tracking and technical data element details for SPACEBEE-52 (NORAD 47425). SPACEBEE-52 can be tracked NOW for your location showing map with azimuth and elevation plus other details from your city location.

Track the satellite on the map from your city or location and see movement details for azimuth, elevation, latitude, longitude, range, height, and movement on the map or in text.







IsCatalogInMostPopularTable: catalog: 47425, numindb: 17
Update: records affected: 1



GetName: 47425 SPACEBEE-52

Hit Count: updated at: Fri, 16 Apr 2021 10:29:16 GMT